Regional Weather Roundup
Issued by NWS

Home | Current Version | Previous Version | Graphics & Text | Print | Product List | Glossary Off
Versions: 1 2 3 4 5 6 7 8 9 10 11 12 13 14 15 16 17 18 19 20 21 22 23 24 25 26 27 28 29 30 31 32 33 34 35 36 37 38 39 40 41 42 43 44 45 46 47 48 49 50

000
ASUS43 KDMX 250006
RWRIA

WEATHER ROUNDUP FOR IOWA
NATIONAL WEATHER SERVICE DES MOINES IA
600 PM CST SAT FEB 24 2018

NOTE: "FAIR" INDICATES FEW OR NO CLOUDS BELOW 12,000 FEET WITH NO
SIGNIFICANT WEATHER AND/OR OBSTRUCTIONS TO VISIBILITY.

* - THESE STATIONS ARE NOT NWS STATIONS...THUS NOT UNDER NWS
QUALITY CONTROL.  THEY ALSO DO NOT REPORT WEATHER SUCH
AS PRECIPITATION OR FOG.

IAZ001>003-012>014-020>022-031>034-043>046-250100-
   NORTHWEST IOWA

CITY           SKY/WX    TMP DP  RH WIND       PRES   REMARKS
CARROLL *      CLOUDY    28  28 100 W9        29.66R WCI  20
CHEROKEE *     CLOUDY    24  23  96 W10       29.65R WCI  14
DENISON *      CLOUDY    27  27 100 SW12      29.68R WCI  16
LE MARS *      MIX PCPN  23  19  86 SW8       29.66R WCI  14
ORANGE CITY *  LGT SNOW  21  21 100 W8        29.64R WCI  12
SHELDON *      CLOUDY    21  21 100 W9        29.62S FOG     WCI  11
SIOUX CITY     LGT SNOW  23  20  88 SW7       29.68S FOG     WCI  15
6HR MIN TEMP:  22; 6HR MAX TEMP:  26; 6HR PCP: TRACE;

SPENCER        CLOUDY    22  18  85 W5        29.62F FOG     WCI  16
6HR MIN TEMP:  22; 6HR MAX TEMP:  25; 6HR PCP: TRACE;

STORM LAKE *   CLOUDY    25  23  93 W15       29.62R WCI  12
$$

IAZ055>058-069>071-079>083-090>094-250100-
   SOUTHWEST IOWA

CITY           SKY/WX    TMP DP  RH WIND       PRES   REMARKS
ATLANTIC *     CLOUDY    30  30 100 W12G17    29.69R WCI  21
AUDUBON *      FLURRIES  28  27  93 W5        29.67R WCI  23
CLARINDA *     CLOUDY    32  32 100 W15G21    29.75R WCI  22
COUNCIL BLFS * CLOUDY    28  28 100 W9        29.70R WCI  20
CRESTON *      MIX PCPN  32  30  93 W12       29.67S WCI  23
LAMONI         CLOUDY    33  31  92 W15       29.66S WCI  23
6HR MIN TEMP:  32; 6HR MAX TEMP:  34; 6HR PCP:  0.05;

RED OAK *      CLOUDY    30  30 100 W12       29.71R WCI  21
SHENANDOAH *   CLOUDY    30  28  93 W12G18    29.74R WCI  21
$$

IAZ047>049-059>061-072>074-084-250100-
   CENTRAL IOWA

CITY           SKY/WX    TMP DP  RH WIND       PRES   REMARKS
AMES           LGT SNOW  32  31  96 W7        29.63F FOG     WCI  26
6HR MIN TEMP:  32; 6HR MAX TEMP:  34; 6HR PCP:  0.07;

ANKENY *       LGT SNOW  32  32 100 W9G22     29.65F WCI  24
BOONE *        LGT SNOW  32  32 100 W6        29.61F WCI  26
CHARITON *     LGT RAIN  34  34 100 W8        29.64S WCI  27
DES MOINES     LGT SNOW  33  32  96 W8        29.65S VSB 1   WCI  26
6HR MIN TEMP:  33; 6HR MAX TEMP:  35; 6HR PCP:  0.10;

GRINNELL*      RAIN      35  34  98 SW6       29.62R WCI  30
KNOXVILLE *    LGT RAIN  34  34 100 W10       29.62S WCI  26
MARSHALLTOWN   LGT SNOW  34  34 100 SW8       29.61R FOG     WCI  27
6HR MIN TEMP:  33; 6HR MAX TEMP:  35; 6HR PCP:  0.06;

NEWTON *       LGT SNOW  34  34 100 W12       29.63R WCI  25
PELLA *        RAIN      36  35  98 W7        29.65R WCI  30
PERRY *        LGT SNOW  32  32 100 W6        29.65S WCI  26
$$

IAZ004>006-015-016-023>025-035-036-250100-
   NORTH CENTRAL IOWA

CITY           SKY/WX    TMP DP  RH WIND       PRES   REMARKS
ALGONA *       SNOW      30 N/A N/A W8        29.60R VSB 1/2 WCI  23
CLARION *      FOG       32  32 100 S8        29.60F VSB 1/4 WCI  25
ESTHERVILLE    SNOW      21  19  92 NW7       29.59F VSB 1/4 WCI  12
6HR MIN TEMP:  17; 6HR MAX TEMP:  21; 6HR PCP: TRACE;

FORT DODGE *   LGT SNOW  30  28  92 W8        29.62R FOG     WCI  22
MASON CITY     LGT SNOW  32  31  96 S8        29.61F VSB 3/4 WCI  25
6HR MIN TEMP:  28; 6HR MAX TEMP:  32; 6HR PCP:  0.07;

FOREST CITY *  LGT SNOW  32  32 100 S3        29.60S
WEBSTER CITY * SNOW      32  32 100 SW8       29.59F VSB 1/4 WCI  25
IOWA FALLS *   LGT SNOW  33  33  97 SW8       29.62S VSB 1   WCI  27
$$

IAZ007>011-017>019-026>030-037>042-050>054-066-250100-
   NORTHEAST IOWA

CITY           SKY/WX    TMP DP  RH WIND       PRES   REMARKS
CEDAR RAPIDS   LGT RAIN  37  30  75 SE12      29.58F WCI  29
6HR MIN TEMP:  35; 6HR MAX TEMP:  37; 6HR PCP:  0.01;

CHARLES CITY * LGT SNOW  34  34 100 SE10G16   29.59F VSB 3/4 WCI  26
CLINTON *      LGT RAIN  39  39 100 SE18      29.62F FOG     WCI  30
DECORAH *      LGT SNOW  34  34 100 SE12G18   29.59F WCI  25
DUBUQUE        CLOUDY    36  34  92 SE16G25   29.62F FOG     WCI  26
6HR MIN TEMP:  32; 6HR MAX TEMP:  36; 6HR PCP:  0.08;

MONTICELLO *   CLOUDY    37  37 100 SE14      29.60F FOG     WCI  29
OELWEIN *      CLOUDY    34  34 100 SE18      29.57F FOG     WCI  23
WATERLOO       CLOUDY    34  34 100 SE9       29.58F FOG     WCI  27
6HR MIN TEMP:  32; 6HR MAX TEMP:  34; 6HR PCP:  0.07;

$$

IAZ064-065-067-068-078-250100-
   EAST CENTRAL IOWA

CITY           SKY/WX    TMP DP  RH WIND       PRES   REMARKS
DAVENPORT      CLOUDY    41  39  93 SE15      29.63F FOG
6HR MIN TEMP:  36; 6HR MAX TEMP:  41; 6HR PCP:  0.01;

IOWA CITY      CLOUDY    40  38  93 E5        29.60F FOG
6HR MIN TEMP:  36; 6HR MAX TEMP:  40; 6HR PCP:  0.04;

MT. PLEASANT * RAIN      39  39 100 SE6       29.59F WCI  35
MUSCATINE *    CLOUDY    41  41 100 SE6       29.60F FOG
QUAD CITIES    LGT RAIN  42  42 100 E13       29.61F FOG
6HR MIN TEMP:  37; 6HR MAX TEMP:  42; 6HR PCP:  0.04;

$$

IAZ062-063-075>077-085>089-095>099-250100-
   SOUTHEAST IOWA

CITY           SKY/WX    TMP DP  RH WIND       PRES   REMARKS
BURLINGTON     LGT RAIN  43  43 100 SE8       29.58F FOG
6HR MIN TEMP:  36; 6HR MAX TEMP:  43; 6HR PCP:  0.06;

FAIRFIELD *    FOG       39  39 100 SE8       29.58F VSB 3/4 WCI  34
FORT MADISON * LGT RAIN  43  43 100 SE6       29.59F
KEOKUK *       CLOUDY    43  43 100 S7        29.59F FOG
OSKALOOSA *    RAIN      35  35  99 W9        29.62R VSB 1   WCI  28
OTTUMWA        LGT RAIN  38  38 100 W10       29.61R FOG     WCI  31
6HR MIN TEMP:  34; 6HR MAX TEMP:  39; 6HR PCP:  0.01;

WASHINGTON *   MIX PCPN  39  39 100 SE9       29.59F WCI  33
$$

ABBREVIATIONS USED IN REMARKS
   TC - TEMPERATURES IN CELSIUS
  WCI - WIND CHILL INDEX
   HX - HEAT INDEX
  VSB - VISIBILITY
$$





USA.gov is the U.S. government's official web portal to all federal, state and local government web resources and services.